Weather History for KCCR - December, 2012

Change the Weather History Date:

Wednesday, December 12, 2012

  Actual Average Record
Temperature  
Mean Temperature 47 °F 48 °F  
Max Temperature 55 °F 56 °F 63 °F (2008)
Min Temperature 39 °F 40 °F 28 °F (2013)
Degree Days  
Heating Degree Days 18    
Month to date heating degree days 153  
Since 1 July heating degree days 534  
Cooling Degree Days 0    
Month to date cooling degree days 0  
Year to date cooling degree days 791  
Moisture  
Dew Point 42 °F    
Average Humidity 72    
Maximum Humidity 93    
Minimum Humidity 51    
Precipitation  
Precipitation 0.04 in - 0.45 in (2006)
Month to date precipitation 2.43  
Year to date precipitation 16.66  
Since 1 July precipitation 6.99  
Sea Level Pressure  
Sea Level Pressure 29.83 in    
Wind  
Wind Speed 7 mph (SW)    
Max Wind Speed 16 mph    
Max Gust Speed 21 mph    
Visibility 10 miles    
Events Rain    
T = Trace of Precipitation, MM = Missing Value Source: NWS Daily Summary

Daily Weather History Graph

Daily Weather History Graph

Search for Another Location

Airport or City:

Trip Planner

Search our weather history database for the weather conditions in past years. The results will help you decide how hot, cold, wet, or windy it might be!

Date:

Astronomy

Dec. 12, 2012 Rise Set
Actual Time 7:15 AM PST 4:49 PM PST
Civil Twilight 6:45 AM PST 5:18 PM PST
Nautical Twilight 6:12 AM PST 5:51 PM PST
Astronomical Twilight 5:40 AM PST 6:23 PM PST
Moon 6:25 AM PST (12/12) 4:31 PM PST (12/12)
Length of Visible Light 10h 32m
Length of Day
9h 33m
Waning Crescent, 0% of the Moon is Illuminated
Dec 12
Waning Crescent
Dec 13
New
Dec 19
First Quarter
Dec 28
Full
Jan 4
Last Quarter

Hourly Weather History & Observations

Time (PST) Temp. Windchill Dew Point Humidity Pressure Visibility Wind Dir Wind Speed Gust Speed Precip Events Conditions
12:43 AM 50.0 °F - 46.4 °F 87% 29.84 in 10.0 mi South 13.8 mph - N/A   Overcast
12:53 AM 50.0 °F - 46.9 °F 89% 29.80 in 10.0 mi SSW 11.5 mph - N/A   Overcast
1:05 AM 50.0 °F - 48.2 °F 94% 29.85 in 6.0 mi Calm Calm - 0.01 in Rain Light Rain
1:15 AM 50.0 °F - 48.2 °F 94% 29.85 in 3.0 mi South 6.9 mph - 0.03 in Rain Light Rain
1:21 AM 50.0 °F - 48.2 °F 94% 29.84 in 5.0 mi South 9.2 mph - 0.03 in Rain Light Rain
1:53 AM 50.0 °F - 48.0 °F 93% 29.79 in 10.0 mi South 8.1 mph - 0.03 in   Overcast
2:43 AM 50.0 °F - 48.2 °F 94% 29.83 in 10.0 mi South 4.6 mph - N/A   Overcast
2:53 AM 50.0 °F - 48.0 °F 93% 29.80 in 10.0 mi South 5.8 mph - N/A   Overcast
3:22 AM 50.0 °F - 46.4 °F 87% 29.83 in 10.0 mi WSW 3.5 mph - 0.01 in   Overcast
3:53 AM 50.0 °F - 45.0 °F 83% 29.79 in 10.0 mi WSW 8.1 mph - 0.01 in   Overcast
4:53 AM 48.9 °F - 43.0 °F 80% 29.80 in 10.0 mi West 8.1 mph - N/A   Overcast
5:53 AM 48.0 °F - 42.1 °F 80% 29.81 in 10.0 mi West 6.9 mph - N/A   Overcast
6:53 AM 48.0 °F - 42.1 °F 80% 29.82 in 10.0 mi WSW 6.9 mph - N/A   Overcast
7:53 AM 48.0 °F - 42.1 °F 80% 29.83 in 10.0 mi SSW 4.6 mph - N/A   Mostly Cloudy
8:53 AM 48.9 °F - 41.0 °F 74% 29.85 in 10.0 mi SW 6.9 mph - N/A   Scattered Clouds
9:53 AM 52.0 °F - 39.9 °F 63% 29.85 in 10.0 mi West 8.1 mph - N/A   Clear
10:53 AM 53.1 °F - 37.9 °F 57% 29.85 in 10.0 mi West 11.5 mph - N/A   Clear
11:53 AM 55.0 °F - 39.0 °F 55% 29.84 in 10.0 mi West 13.8 mph 17.3 mph N/A   Partly Cloudy
12:53 PM 55.0 °F - 37.9 °F 53% 29.82 in 10.0 mi West 10.4 mph 18.4 mph N/A   Mostly Cloudy
1:53 PM 55.0 °F - 37.0 °F 51% 29.81 in 10.0 mi West 10.4 mph - N/A   Partly Cloudy
2:53 PM 52.0 °F - 37.9 °F 59% 29.82 in 10.0 mi West 12.7 mph - N/A   Scattered Clouds
3:53 PM 51.1 °F - 37.9 °F 61% 29.82 in 10.0 mi WSW 8.1 mph - N/A   Clear
4:53 PM 48.0 °F - 39.0 °F 71% 29.82 in 10.0 mi SSW 3.5 mph - N/A   Clear
5:53 PM 46.9 °F - 39.0 °F 74% 29.83 in 10.0 mi SSW 6.9 mph - N/A   Clear
6:53 PM 44.1 °F 40.8 °F 39.0 °F 82% 29.83 in 10.0 mi South 5.8 mph - N/A   Clear
7:53 PM 43.0 °F 40.3 °F 37.9 °F 82% 29.83 in 10.0 mi South 4.6 mph - N/A   Clear
8:53 PM 43.0 °F 41.3 °F 37.9 °F 82% 29.85 in 10.0 mi SSE 3.5 mph - N/A   Clear
9:53 PM 41.0 °F - 37.9 °F 89% 29.85 in 10.0 mi Calm Calm - N/A   Clear
10:53 PM 39.9 °F 37.8 °F 37.0 °F 89% 29.86 in 10.0 mi South 3.5 mph - N/A   Clear
11:53 PM 39.0 °F 36.8 °F 37.0 °F 93% 29.87 in 10.0 mi SSE 3.5 mph - N/A   Clear